• In Netherlands
  • List of Countries
  • For 7 days
  • Water Temperature
  • Satellite Maps
  • Weather Map
  • Weather Widgets
  • user-avatar
    Login

    Hourly Weather Antwerp

    Today, 23 February, Thursday

    Time Temperature Precipitation Wind Pressure Humidity
    00:00 +9°C° 0.5 mm 8 mps 753 mmHg 92%
    01:00 +9°C° 0.6 mm 8 mps 753 mmHg 91%
    02:00 +8°C° 0.6 mm 9 mps 752 mmHg 91%
    03:00 +8°C° 0.6 mm 9 mps 752 mmHg 90%
    04:00 +8°C° 0.4 mm 9 mps 751 mmHg 90%
    05:00 +8°C° 0.4 mm 10 mps 750 mmHg 89%
    06:00 +8°C° 0.4 mm 10 mps 749 mmHg 89%
    07:00 +8°C° 0.3 mm 10 mps 749 mmHg 88%
    08:00 +8°C° 0.3 mm 10 mps 748 mmHg 88%
    09:00 +8°C° 0.3 mm 11 mps 747 mmHg 87%
    10:00 +8°C° 0.4 mm 11 mps 747 mmHg 86%
    11:00 +8°C° 0.4 mm 12 mps 746 mmHg 85%
    12:00 +8°C° 0.4 mm 13 mps 745 mmHg 85%
    13:00 +8°C° 0.4 mm 13 mps 745 mmHg 79%
    14:00 +8°C° 0.4 mm 13 mps 744 mmHg 74%
    15:00 +6°C° 0.4 mm 14 mps 744 mmHg 68%
    16:00 +7°C° 0 mm 13 mps 745 mmHg 69%
    17:00 +5°C° 0 mm 13 mps 745 mmHg 69%
    18:00 +4°C° 0 mm 13 mps 746 mmHg 70%
    19:00 +4°C° 0.1 mm 11 mps 747 mmHg 71%
    20:00 +3°C° 0.1 mm 10 mps 748 mmHg 73%
    21:00 +3°C° 0.1 mm 9 mps 750 mmHg 75%
    22:00 +4°C° 0.1 mm 8 mps 751 mmHg 76%
    23:00 +4°C° 0.1 mm 7 mps 751 mmHg 78%

    Tomorrow, 24 February, Friday

    Time Temperature Precipitation Wind Pressure Humidity
    00:00 +3°C° 0.1 mm 6 mps 752 mmHg 79%
    01:00 +3°C° 0.2 mm 6 mps 753 mmHg 81%
    02:00 +3°C° 0.2 mm 5 mps 753 mmHg 83%
    03:00 +3°C° 0.2 mm 5 mps 754 mmHg 84%
    04:00 +2°C° 0.3 mm 5 mps 754 mmHg 85%
    05:00 +2°C° 0.3 mm 5 mps 755 mmHg 86%
    06:00 +3°C° 0.3 mm 4 mps 755 mmHg 87%
    07:00 +3°C° 0.2 mm 5 mps 756 mmHg 85%
    08:00 +3°C° 0.2 mm 5 mps 757 mmHg 83%
    09:00 +3°C° 0.2 mm 5 mps 757 mmHg 81%
    10:00 +5°C° 0.2 mm 5 mps 758 mmHg 79%
    11:00 +5°C° 0.2 mm 5 mps 759 mmHg 78%
    12:00 +5°C° 0.2 mm 5 mps 759 mmHg 76%
    13:00 +5°C° 0.1 mm 5 mps 760 mmHg 76%
    14:00 +5°C° 0.1 mm 5 mps 760 mmHg 75%
    15:00 +5°C° 0.1 mm 5 mps 761 mmHg 75%
    16:00 +4°C° 0 mm 4 mps 761 mmHg 79%
    17:00 +4°C° 0 mm 4 mps 762 mmHg 82%
    18:00 +3°C° 0 mm 3 mps 763 mmHg 86%
    19:00 +3°C° 0 mm 3 mps 763 mmHg 86%
    20:00 +3°C° 0 mm 2 mps 764 mmHg 86%
    21:00 +3°C° 0 mm 2 mps 764 mmHg 86%
    22:00 +3°C° 0 mm 2 mps 765 mmHg 86%
    23:00 +3°C° 0 mm 2 mps 765 mmHg 86%

    Day after tomorrow, 25 February, Saturday

    Time Temperature Precipitation Wind Pressure Humidity
    00:00 +1°C° 0 mm 3 mps 765 mmHg 86%
    01:00 +1°C° 0 mm 3 mps 765 mmHg 87%
    02:00 +1°C° 0 mm 3 mps 765 mmHg 88%
    03:00 0°C° 0 mm 3 mps 765 mmHg 89%
    04:00 0°C° 0 mm 3 mps 765 mmHg 89%
    05:00 -1°C° 0 mm 4 mps 765 mmHg 89%
    06:00 -1°C° 0 mm 4 mps 765 mmHg 89%
    07:00 0°C° 0 mm 4 mps 765 mmHg 85%
    08:00 +1°C° 0 mm 5 mps 765 mmHg 80%
    09:00 +2°C° 0 mm 6 mps 765 mmHg 76%
    10:00 +3°C° 0 mm 6 mps 765 mmHg 73%
    11:00 +5°C° 0 mm 7 mps 764 mmHg 69%
    12:00 +6°C° 0 mm 7 mps 764 mmHg 66%
    13:00 +6°C° 0 mm 7 mps 764 mmHg 66%
    14:00 +6°C° 0 mm 7 mps 763 mmHg 66%
    15:00 +6°C° 0 mm 7 mps 763 mmHg 66%
    16:00 +5°C° 0 mm 6 mps 763 mmHg 70%
    17:00 +5°C° 0 mm 6 mps 763 mmHg 73%
    18:00 +5°C° 0 mm 5 mps 762 mmHg 76%
    19:00 +4°C° 0 mm 6 mps 762 mmHg 75%
    20:00 +4°C° 0 mm 6 mps 762 mmHg 74%
    21:00 +3°C° 0 mm 7 mps 762 mmHg 74%
    22:00 +3°C° 0 mm 6 mps 762 mmHg 73%
    23:00 +3°C° 0 mm 6 mps 761 mmHg 73%

    26 February, Sunday

    Time Temperature Precipitation Wind Pressure Humidity
    00:00 +3°C° 0 mm 6 mps 761 mmHg 73%
    01:00 +3°C° 0 mm 6 mps 761 mmHg 74%
    02:00 +3°C° 0 mm 6 mps 761 mmHg 74%
    03:00 +3°C° 0 mm 6 mps 760 mmHg 74%
    04:00 +3°C° 0 mm 6 mps 760 mmHg 75%
    05:00 +3°C° 0 mm 6 mps 760 mmHg 76%
    06:00 +3°C° 0 mm 6 mps 759 mmHg 77%
    07:00 +3°C° 0 mm 6 mps 760 mmHg 77%
    08:00 +4°C° 0 mm 7 mps 760 mmHg 77%
    09:00 +4°C° 0 mm 7 mps 760 mmHg 77%
    10:00 +6°C° 0 mm 7 mps 760 mmHg 77%
    11:00 +8°C° 0 mm 7 mps 759 mmHg 77%
    12:00 +9°C° 0 mm 6 mps 759 mmHg 77%
    13:00 +9°C° 0 mm 6 mps 759 mmHg 79%
    14:00 +9°C° 0 mm 6 mps 759 mmHg 82%
    15:00 +9°C° 0 mm 5 mps 759 mmHg 85%
    16:00 +8°C° 0 mm 5 mps 759 mmHg 87%
    17:00 +8°C° 0 mm 5 mps 759 mmHg 88%
    18:00 +8°C° 0 mm 5 mps 759 mmHg 90%
    19:00 +8°C° 0 mm 6 mps 759 mmHg 90%
    20:00 +8°C° 0 mm 6 mps 758 mmHg 89%
    21:00 +8°C° 0 mm 6 mps 758 mmHg 89%
    22:00 +8°C° 0 mm 6 mps 758 mmHg 89%
    23:00 +8°C° 0 mm 6 mps 758 mmHg 89%

    27 February, Monday

    Time Temperature Precipitation Wind Pressure Humidity
    00:00 +8°C° 0 mm 6 mps 757 mmHg 90%
    01:00 +8°C° 0 mm 6 mps 757 mmHg 90%
    02:00 +8°C° 0 mm 6 mps 756 mmHg 90%
    03:00 +8°C° 0 mm 6 mps 756 mmHg 91%
    04:00 +8°C° 0.1 mm 6 mps 756 mmHg 90%
    05:00 +8°C° 0.1 mm 6 mps 755 mmHg 90%
    06:00 +8°C° 0.1 mm 6 mps 755 mmHg 89%
    07:00 +8°C° 0 mm 6 mps 754 mmHg 86%
    08:00 +8°C° 0 mm 7 mps 754 mmHg 83%
    09:00 +8°C° 0 mm 7 mps 754 mmHg 80%
    10:00 +9°C° 0 mm 7 mps 753 mmHg 79%
    11:00 +9°C° 0 mm 8 mps 753 mmHg 78%
    12:00 +9°C° 0 mm 8 mps 752 mmHg 77%
    13:00 +9°C° 0 mm 8 mps 751 mmHg 76%
    14:00 +9°C° 0 mm 8 mps 750 mmHg 76%
    15:00 +9°C° 0 mm 8 mps 749 mmHg 75%
    16:00 +9°C° 0.7 mm 7 mps 749 mmHg 79%
    17:00 +9°C° 0.7 mm 7 mps 748 mmHg 84%
    18:00 +8°C° 0.7 mm 7 mps 747 mmHg 89%
    19:00 +8°C° 0.5 mm 6 mps 747 mmHg 89%
    20:00 +7°C° 0.5 mm 5 mps 747 mmHg 89%
    21:00 +7°C° 0.5 mm 5 mps 746 mmHg 90%
    22:00 +7°C° 0.1 mm 5 mps 746 mmHg 90%
    23:00 +5°C° 0.1 mm 6 mps 746 mmHg 90%

    28 February, Tuesday

    Time Temperature Precipitation Wind Pressure Humidity
    00:00 +5°C° 0.1 mm 6 mps 745 mmHg 90%
    01:00 +5°C° 0.5 mm 7 mps 744 mmHg 89%
    02:00 +5°C° 0.5 mm 7 mps 744 mmHg 87%
    03:00 +5°C° 0.5 mm 8 mps 743 mmHg 86%
    04:00 +4°C° 0 mm 8 mps 744 mmHg 86%
    05:00 +2°C° 0 mm 8 mps 744 mmHg 86%
    06:00 +1°C° 0 mm 8 mps 744 mmHg 85%
    07:00 +1°C° 0 mm 8 mps 745 mmHg 83%
    08:00 +2°C° 0 mm 8 mps 745 mmHg 80%
    09:00 +4°C° 0 mm 8 mps 746 mmHg 78%
    10:00 +4°C° 0.1 mm 7 mps 746 mmHg 75%
    11:00 +5°C° 0.1 mm 7 mps 745 mmHg 72%
    12:00 +7°C° 0.1 mm 6 mps 745 mmHg 69%
    13:00 +7°C° 0.1 mm 6 mps 745 mmHg 69%
    14:00 +7°C° 0.1 mm 6 mps 745 mmHg 69%
    15:00 +7°C° 0.1 mm 5 mps 745 mmHg 68%
    16:00 +6°C° 0.1 mm 5 mps 745 mmHg 73%
    17:00 +5°C° 0.1 mm 4 mps 745 mmHg 78%
    18:00 +4°C° 0.1 mm 4 mps 745 mmHg 83%
    19:00 +4°C° 0.1 mm 4 mps 745 mmHg 83%
    20:00 +3°C° 0.1 mm 5 mps 745 mmHg 84%
    21:00 +3°C° 0.1 mm 6 mps 745 mmHg 85%
    22:00 +3°C° 0.2 mm 7 mps 745 mmHg 86%
    23:00 +3°C° 0.2 mm 7 mps 745 mmHg 87%
    Show more